K5GTX Weather Reports


time (UTC)temp
F
wind
direction
speed
knots
gust
knots
rain 1hr
in
rain 24hr
in
rain mn
in
humidity
%
barometer
mb
20260507060853 55 144 0.0 3.5 0.00 0.00 0.00 99 1024.0
20260507060349 56 90 0.0 1.7 0.00 0.00 0.00 99 1023.9
20260507055846 56 90 0.9 3.5 0.00 0.00 0.00 99 1024.0
20260507055341 56 140 1.7 1.7 0.00 0.00 0.00 99 1023.8
20260507054839 56 140 0.0 1.7 0.00 0.00 0.00 99 1023.8
20260507054335 56 49 1.7 1.7 0.00 0.00 0.00 99 1023.9
20260507053832 56 56 1.7 1.7 0.00 0.00 0.00 99 1023.8
20260507053329 56 67 1.7 1.7 0.00 0.00 0.00 99 1023.8
20260507052828 56 100 1.7 1.7 0.00 0.00 0.00 99 1024.0
20260507052324 57 99 0.0 0.9 0.00 0.00 0.00 99 1023.9
20260507051822 57 97 0.0 1.7 0.00 0.00 0.00 99 1024.0
20260507051320 57 111 0.0 0.9 0.00 0.00 0.00 99 1023.9
20260507050816 57 10 2.6 3.5 0.00 0.00 0.00 99 1023.9
20260507050313 57 106 0.9 3.5 0.00 0.00 0.00 99 1024.3
20260507045810 57 90 0.9 3.5 0.00 0.00 0.00 99 1024.1
20260507045307 57 90 0.0 2.6 0.00 0.00 0.00 99 1023.9
20260507044803 58 90 0.0 0.9 0.00 0.00 0.00 99 1024.1
20260507044300 57 8 0.0 1.7 0.00 0.00 0.00 99 1024.1
20260507043756 58 98 0.0 3.5 0.00 0.00 0.00 99 1024.0
20260507043252 58 94 1.7 2.6 0.00 0.00 0.00 99 1023.9
20260507042749 58 90 0.9 2.6 0.00 0.00 0.00 99 1023.9
20260507042244 58 130 0.0 4.3 0.00 0.00 0.00 99 1024.1
20260507041742 58 56 0.0 2.6 0.00 0.00 0.00 99 1024.3
20260507041238 58 82 0.0 7.0 0.00 0.00 0.00 99 1024.6
20260507040735 58 41 1.7 5.2 0.00 0.00 0.00 99 1024.5
20260507040231 58 59 4.3 6.1 0.00 0.00 0.00 99 1024.4
20260507035727 59 120 0.0 5.2 0.00 0.00 0.00 99 1024.5
20260507035223 59 110 2.6 4.3 0.00 0.00 0.00 99 1024.4
20260507034721 58 66 0.0 2.6 0.00 0.00 0.00 99 1024.4
20260507034218 58 90 0.9 5.2 0.00 0.00 0.00 99 1024.5
20260507033716 59 103 0.0 3.5 0.00 0.00 0.00 99 1024.4
20260507033213 59 110 0.0 3.5 0.00 0.00 0.00 99 1024.3
20260507032710 59 105 0.9 3.5 0.00 0.00 0.00 99 1024.1
20260507032206 59 74 0.0 4.3 0.00 0.00 0.00 99 1024.4
20260507031703 59 82 0.9 2.6 0.00 0.00 0.00 99 1024.2
20260507031200 59 20 2.6 7.0 0.00 0.00 0.00 99 1024.3
20260507030656 59 75 4.3 5.2 0.00 0.00 0.00 99 1024.1
20260507030154 59 56 1.7 3.5 0.00 0.00 0.00 99 1023.7
20260507025651 59 354 2.6 3.5 0.00 0.00 0.00 99 1023.7
20260507025148 59 38 1.7 5.2 0.00 0.00 0.00 99 1023.8
20260507024646 59 90 1.7 5.2 0.00 0.00 0.00 99 1023.5
20260507024143 59 78 2.6 4.3 0.00 0.00 0.00 99 1023.5
20260507023638 59 52 3.5 3.5 0.00 0.00 0.00 99 1023.4
20260507023136 59 105 0.0 2.6 0.00 0.00 0.00 99 1023.3
20260507022633 59 97 0.0 4.3 0.00 0.00 0.00 99 1023.3
20260507022128 59 38 2.6 5.2 0.00 0.00 0.00 99 1023.1
20260507021625 59 83 0.9 4.3 0.00 0.00 0.00 99 1022.9
20260507021120 59 90 0.9 3.5 0.00 0.00 0.00 99 1022.9
20260507020619 59 98 0.9 2.6 0.00 0.00 0.00 99 1022.9
20260507020115 59 41 1.7 2.6 0.00 0.00 0.00 99 1022.9
20260507015614 59 57 3.5 6.1 0.00 0.00 0.00 99 1022.7
20260507015111 59 28 4.3 6.1 0.00 0.00 0.00 99 1022.8
20260507014607 59 41 1.7 5.2 0.00 0.00 0.00 99 1022.6
20260507014103 59 54 0.0 5.2 0.00 0.00 0.00 99 1022.4
20260507013600 59 58 2.6 6.1 0.00 0.00 0.00 99 1022.2
20260507013057 59 90 0.0 3.5 0.00 0.00 0.00 99 1022.1
20260507012554 59 49 4.3 5.2 0.00 0.00 0.00 99 1022.0
20260507012050 59 22 2.6 7.0 0.00 0.00 0.00 99 1021.9
20260507011548 59 30 2.6 4.3 0.00 0.00 0.00 99 1021.9
20260507011044 59 60 0.0 3.5 0.00 0.00 0.00 99 1022.0
20260507010538 59 75 2.6 3.5 0.00 0.00 0.00 99 1021.9
20260507010035 59 90 0.0 4.3 0.00 0.00 0.00 99 1021.9
20260507005533 59 32 2.6 2.6 0.00 0.00 0.00 99 1021.9
20260507005029 59 75 0.0 3.5 0.00 0.00 0.00 99 1021.6
20260507004526 59 84 0.0 2.6 0.00 0.00 0.00 99 1021.6
20260507004023 59 33 1.7 2.6 0.00 0.00 0.00 99 1021.6
20260507003519 59 90 0.0 5.2 0.00 0.00 0.00 99 1021.5
20260507003014 59 37 0.0 4.3 0.00 0.00 0.00 99 1021.7
20260507002511 59 77 1.7 6.1 0.00 0.00 0.00 99 1021.3
20260507002007 60 6 0.0 4.3 0.00 0.00 0.00 99 1021.6
20260507001503 60 90 1.7 7.8 0.00 0.00 0.00 99 1021.2
20260507001001 59 105 2.6 7.8 0.00 0.00 0.00 99 1021.2
20260507000457 60 105 0.0 6.1 0.00 0.00 0.00 99 1021.2
20260506235952 60 45 1.7 3.5 0.00 0.00 0.00 99 1021.2
20260506235450 60 95 1.7 4.3 0.00 0.00 0.00 99 1020.9
20260506234946 60 56 5.2 5.2 0.00 0.00 0.00 99 1020.8
20260506234443 60 100 0.0 2.6 0.00 0.00 0.00 99 1020.9
20260506233941 59 55 2.6 6.1 0.00 0.00 0.00 99 1021.2
20260506233437 59 92 4.3 7.8 0.00 0.00 0.00 99 1021.2
20260506232934 60 114 1.7 4.3 0.00 0.00 0.00 99 1021.0
20260506232430 59 302 2.6 6.1 0.00 0.00 0.00 99 1020.6
20260506231926 60 42 2.6 7.8 0.00 0.00 0.00 99 1020.8
20260506231423 59 62 7.0 7.0 0.00 0.00 0.00 99 1020.6
20260506230921 59 121 1.7 7.8 0.00 0.00 0.00 99 1020.7
20260506230417 59 90 1.7 3.5 0.00 0.00 0.00 99 1020.9
20260506225914 60 65 0.0 3.5 0.00 0.00 0.00 99 1020.9
20260506225411 60 66 0.0 6.1 0.00 0.00 0.00 99 1020.6
20260506224908 60 25 2.6 4.3 0.00 0.00 0.00 99 1021.0
20260506224405 60 90 0.9 1.7 0.00 0.00 0.00 99 1020.9
20260506223901 60 66 0.9 2.6 0.00 0.00 0.00 99 1020.9
20260506223357 59 70 1.7 6.1 0.00 0.00 0.00 99 1020.6
20260506222854 59 0 0.0 7.0 0.00 0.00 0.00 99 1020.8
20260506222350 60 90 1.7 5.2 0.00 0.00 0.00 99 1020.7
20260506221848 60 67 2.6 4.3 0.00 0.00 0.00 99 1020.9
20260506221345 60 21 5.2 7.8 0.00 0.00 0.00 99 1020.6
20260506220842 60 47 2.6 6.1 0.00 0.00 0.00 99 1020.5
20260506220338 60 12 2.6 7.8 0.00 0.00 0.00 99 1020.5
20260506215835 60 349 0.0 2.6 0.00 0.00 0.00 99 1020.1
20260506215330 60 9 1.7 7.0 0.00 0.00 0.00 99 1020.1
20260506214827 60 345 1.7 9.6 0.00 0.00 0.00 99 1020.3
20260506214323 60 324 4.3 6.1 0.00 0.00 0.00 99 1020.3
20260506213822 60 10 2.6 7.8 0.00 0.00 0.00 99 1020.3
20260506213319 60 39 4.3 6.1 0.00 0.00 0.00 99 1020.9
20260506212816 60 73 1.7 7.0 0.00 0.00 0.00 99 1020.5
20260506212312 60 100 1.7 5.2 0.00 0.00 0.00 99 1020.6
20260506211807 60 35 2.6 5.2 0.00 0.00 0.00 99 1020.5
20260506211303 61 352 0.0 1.7 0.00 0.00 0.00 99 1020.5
20260506210801 60 328 1.7 7.0 0.00 0.00 0.00 99 1020.4
20260506210257 60 73 4.3 4.3 0.00 0.00 0.00 99 1020.5
20260506205754 61 102 1.7 7.0 0.00 0.00 0.00 99 1020.7
20260506205250 61 36 1.7 3.5 0.00 0.00 0.00 99 1020.7
20260506204747 60 33 3.5 9.6 0.00 0.00 0.00 99 1020.7
20260506204245 60 32 2.6 5.2 0.00 0.00 0.00 99 1020.3
20260506203742 59 28 7.0 10.4 0.00 0.00 0.00 99 1020.8
20260506203239 60 80 1.7 7.0 0.00 0.00 0.00 99 1021.0
20260506202736 59 330 0.0 7.8 0.00 0.00 0.00 99 1021.2
20260506202233 59 30 3.5 5.2 0.00 0.00 0.00 99 1021.2
20260506201730 59 17 4.3 7.8 0.00 0.00 0.00 99 1020.9
20260506201226 59 51 1.7 7.8 0.00 0.00 0.00 99 1021.1
20260506200723 60 293 2.6 8.7 0.00 0.00 0.00 99 1021.0
20260506200220 59 15 2.6 7.8 0.00 0.00 0.00 99 1020.8
20260506195716 59 290 1.7 5.2 0.00 0.00 0.00 99 1021.3
20260506195212 58 32 1.7 5.2 0.00 0.00 0.00 99 1021.5
20260506194705 57 0 0.0 2.6 0.00 0.00 0.00 99 1021.3
20260506194201 57 33 3.5 5.2 0.00 0.00 0.00 99 1021.6
20260506193659 57 18 0.9 2.6 0.00 0.00 0.00 99 1021.7
20260506193155 57 336 1.7 2.6 0.00 0.00 0.00 99 1021.7
20260506192652 58 29 0.0 2.6 0.00 0.00 0.00 99 1021.3
20260506192148 57 25 4.3 4.3 0.00 0.00 0.00 99 1021.3
20260506191646 57 33 1.7 2.6 0.00 0.00 0.00 99 1021.4
20260506191141 57 0 1.7 2.6 0.00 0.00 0.00 99 1021.8
20260506190639 57 63 0.0 2.6 0.00 0.00 0.00 99 1022.0
20260506190135 57 30 0.0 2.6 0.00 0.00 0.00 99 1021.6
20260506185633 57 332 1.7 3.5 0.00 0.00 0.00 99 1021.6
20260506185129 57 15 0.9 4.3 0.00 0.00 0.00 99 1021.4
20260506184626 57 0 1.7 3.5 0.00 0.00 0.00 99 1021.1
20260506184123 56 0 0.0 6.1 0.00 0.00 0.00 99 1021.0
20260506183620 56 24 5.2 5.2 0.00 0.00 0.00 99 1020.5
20260506183116 56 7 2.6 6.1 0.00 0.00 0.00 99 1020.4
20260506182614 56 348 0.0 7.0 0.00 0.00 0.00 99 1020.3
20260506182110 56 17 5.2 7.8 0.00 0.00 0.00 99 1020.3
20260506181609 56 10 3.5 7.8 0.00 0.00 0.00 99 1019.9
20260506181105 56 16 4.3 7.0 0.00 0.00 0.00 99 1019.8
20260506180602 55 8 2.6 6.1 0.00 0.00 0.00 99 1020.1
20260506180059 55 8 0.0 5.2 0.00 0.00 0.00 99 1020.5
20260506175555 55 291 0.9 4.3 0.00 0.00 0.00 99 1020.9
20260506175051 55 45 2.6 7.0 0.00 0.00 0.00 99 1020.8
20260506174550 55 2 2.6 5.2 0.00 0.00 0.00 99 1020.9
20260506174046 54 18 0.0 7.8 0.00 0.00 0.00 99 1020.9
20260506173544 54 32 0.9 6.1 0.00 0.00 0.00 99 1020.8
20260506173040 54 4 2.6 7.8 0.00 0.00 0.00 99 1020.6
20260506172538 54 37 4.3 6.1 0.00 0.00 0.00 99 1020.9
20260506172034 54 15 0.9 6.1 0.00 0.00 0.00 99 1020.8
20260506171531 54 345 4.3 4.3 0.00 0.00 0.00 99 1020.8
20260506171029 54 21 3.5 6.1 0.00 0.00 0.00 99 1021.2
20260506170526 53 15 5.2 7.8 0.00 0.00 0.00 99 1020.9
20260506170018 53 13 3.5 7.8 0.00 0.00 0.00 99 1021.3
20260506165516 53 353 4.3 7.8 0.00 0.00 0.00 99 1021.4
20260506165012 53 353 1.7 9.6 0.00 0.00 0.00 99 1021.7
20260506164509 53 45 6.1 6.1 0.00 0.00 0.00 99 1021.6
20260506164007 53 16 1.7 5.2 0.00 0.00 0.00 99 1021.9
20260506163502 53 78 3.5 6.1 0.00 0.00 0.00 99 1021.8
20260506162956 53 31 6.1 6.1 0.00 0.00 0.00 99 1022.0
20260506162454 53 0 0.0 5.2 0.00 0.00 0.00 99 1022.1
20260506161951 53 16 0.0 2.6 0.00 0.00 0.00 99 1022.0
20260506161449 54 11 0.0 1.7 0.00 0.00 0.00 99 1022.0
20260506160946 53 312 0.0 3.5 0.00 0.00 0.00 99 1021.4
20260506160444 53 59 0.0 3.5 0.00 0.00 0.00 99 1020.5
20260506155941 53 34 1.7 4.3 0.00 0.00 0.00 99 1020.6
20260506155438 52 6 3.5 3.5 0.00 0.00 0.00 99 1020.6
20260506153605 53 12 0.9 5.2 0.00 0.00 0.00 99 1023.3
20260506153103 53 330 1.7 5.2 0.00 0.00 0.00 99 1023.3
20260506152559 54 339 2.6 7.0 0.00 0.00 0.00 99 1022.8
20260506152057 54 352 4.3 4.3 0.00 0.00 0.00 99 1022.3
20260506151555 54 73 4.3 4.3 0.00 0.00 0.00 99 1022.0
20260506151052 54 23 4.3 5.2 0.00 0.00 0.00 99 1021.5
20260506150548 54 46 3.5 8.7 0.00 0.00 0.00 99 1021.6
20260506150045 54 28 3.5 13.0 0.00 0.00 0.00 99 1020.6
20260506145542 54 26 7.0 10.4 0.00 0.00 0.00 99 1021.5
20260506145040 54 23 7.8 8.7 0.00 0.00 0.00 99 1021.5
20260506144536 54 355 1.7 8.7 0.00 0.00 0.00 99 1021.5
20260506144034 54 0 2.6 7.8 0.00 0.00 0.00 99 1021.7
20260506143531 54 48 5.2 5.2 0.00 0.00 0.00 99 1021.6
20260506143030 54 5 6.1 7.8 0.00 0.00 0.00 99 1021.8
20260506142527 54 41 10.4 10.4 0.00 0.00 0.00 99 1021.4
20260506142025 54 15 1.7 7.8 0.00 0.00 0.00 99 1021.2
20260506141522 54 9 4.3 9.6 0.00 0.00 0.00 99 1020.7
20260506141021 54 13 2.6 7.8 0.00 0.00 0.00 99 1021.2
20260506140518 54 352 2.6 6.1 0.00 0.00 0.00 99 1020.8
20260506140015 53 95 1.7 7.8 0.00 0.00 0.00 99 1020.7
20260506135512 53 67 3.5 9.6 0.00 0.00 0.00 99 1020.6
20260506135008 53 7 4.3 8.7 0.00 0.00 0.00 99 1020.6
20260506134504 54 57 3.5 8.7 0.00 0.00 0.00 99 1020.6
20260506134000 53 28 2.6 4.3 0.00 0.00 0.00 99 1020.4
20260506133457 54 33 8.7 8.7 0.00 0.00 0.00 99 1020.3
20260506132954 53 106 0.0 7.0 0.00 0.00 0.00 99 1020.7
20260506132451 53 3 4.3 8.7 0.00 0.00 0.00 99 1020.0
20260506131949 53 291 0.9 5.2 0.00 0.00 0.00 99 1019.9
20260506131445 53 71 0.0 4.3 0.00 0.00 0.00 99 1019.8
20260506130942 53 121 1.7 6.1 0.00 0.00 0.00 99 1019.9
20260506130439 53 66 1.7 6.1 0.00 0.00 0.00 99 1020.1
20260506125937 53 11 2.6 5.2 0.00 0.00 0.00 99 1019.9
20260506125435 53 300 0.9 4.3 0.00 0.00 0.00 99 1019.9
20260506124933 53 354 4.3 10.4 0.00 0.00 0.00 99 1019.9
20260506124430 53 4 8.7 10.4 0.00 0.00 0.00 99 1019.9
20260506123928 53 19 4.3 9.6 0.00 0.00 0.00 99 1019.7
20260506123426 53 86 1.7 7.0 0.00 0.00 0.00 99 1019.9
20260506122923 53 347 4.3 7.8 0.00 0.00 0.00 99 1019.7
20260506122419 53 7 7.8 7.8 0.00 0.00 0.00 99 1019.6
20260506121918 53 17 9.6 12.2 0.00 0.00 0.00 99 1019.5
20260506121414 53 14 5.2 9.6 0.00 0.00 0.00 99 1019.3
20260506120911 54 0 1.7 4.3 0.00 0.00 0.00 99 1019.6
20260506120409 54 90 0.0 7.0 0.00 0.00 0.00 99 1019.7
20260506115906 53 319 3.5 15.6 0.00 0.00 0.00 99 1019.6
20260506115404 53 39 6.1 14.8 0.00 0.00 0.00 99 1019.1
20260506114902 54 0 2.6 7.8 0.00 0.00 0.00 99 1019.5
20260506114359 54 14 1.7 8.7 0.00 0.00 0.00 99 1019.2
20260506113858 54 12 2.6 12.2 0.00 0.00 0.00 99 1018.8
20260506113355 54 32 7.8 9.6 0.00 0.00 0.00 99 1018.7
20260506112852 54 50 2.6 13.0 0.00 0.00 0.00 99 1018.7
20260506112349 54 88 5.2 13.0 0.00 0.00 0.00 99 1018.9
20260506111846 55 333 6.1 8.7 0.00 0.00 0.00 99 1018.5
20260506111344 55 261 1.7 12.2 0.00 0.00 0.00 99 1018.4
20260506110841 55 8 2.6 7.8 0.00 0.00 0.00 99 1018.5
20260506110338 55 52 9.6 14.8 0.00 0.00 0.00 99 1018.4
20260506105835 55 302 6.1 13.0 0.00 0.00 0.00 99 1018.3
20260506105332 55 56 3.5 7.8 0.00 0.00 0.00 99 1018.5
20260506104829 55 61 7.0 12.2 0.00 0.00 0.00 99 1018.1
20260506104327 55 33 7.0 7.0 0.00 0.00 0.00 99 1018.3
20260506103824 55 50 5.2 11.3 0.00 0.00 0.00 99 1017.9
20260506103322 56 5 3.5 7.0 0.00 0.00 0.00 99 1017.9
20260506102819 55 33 4.3 7.8 0.00 0.00 0.00 99 1017.8
20260506102317 56 16 3.5 9.6 0.00 0.00 0.00 99 1017.7
20260506101814 56 312 3.5 8.7 0.00 0.00 0.00 99 1017.7
20260506101310 56 322 3.5 9.6 0.00 0.00 0.00 99 1017.4
20260506100808 56 60 7.8 7.8 0.00 0.00 0.00 99 1017.3
20260506100306 56 11 2.6 7.8 0.00 0.00 0.00 99 1017.4
20260506095804 56 18 3.5 8.7 0.00 0.00 0.00 99 1017.3
20260506095301 56 62 7.0 9.6 0.00 0.00 0.00 99 1017.2
20260506094757 57 24 6.1 8.7 0.00 0.00 0.00 99 1017.2
20260506094256 57 19 3.5 10.4 0.00 0.00 0.00 99 1017.2
20260506093754 57 346 3.5 7.8 0.00 0.00 0.00 99 1017.2
20260506093251 57 26 3.5 7.8 0.00 0.00 0.00 99 1017.1
20260506092749 57 56 4.3 6.1 0.00 0.00 0.00 99 1017.2
20260506092246 57 10 2.6 7.0 0.00 0.00 0.00 99 1017.2
20260506091743 57 44 6.1 6.1 0.00 0.00 0.00 99 1017.0
20260506091241 58 21 1.7 1.7 0.00 0.00 0.00 99 1017.1
20260506090739 57 26 4.3 7.0 0.00 0.00 0.00 99 1016.8
20260506090235 58 70 3.5 9.6 0.00 0.00 0.00 99 1017.0
20260506085732 58 3 2.6 7.8 0.00 0.00 0.00 99 1016.9
20260506085228 58 13 3.5 5.2 0.00 0.00 0.00 99 1016.8
20260506084726 58 339 4.3 7.8 0.00 0.00 0.00 99 1016.7
20260506084221 58 326 1.7 4.3 0.00 0.00 0.00 99 1016.8
20260506083718 58 90 3.5 6.1 0.00 0.00 0.00 99 1016.6
20260506083216 57 24 4.3 6.1 0.00 0.00 0.00 99 1016.6
20260506082713 57 29 2.6 7.0 0.00 0.00 0.00 99 1016.5
20260506082209 57 90 0.0 7.8 0.00 0.00 0.00 99 1016.5
20260506081707 57 95 1.7 7.0 0.00 0.00 0.00 99 1016.5
20260506081204 57 13 4.3 6.1 0.00 0.00 0.00 99 1016.0
20260506080701 57 61 1.7 6.1 0.00 0.00 0.00 99 1016.4
20260506080158 58 96 0.9 3.5 0.00 0.00 0.00 99 1016.3
20260506073143 58 0 0.0 8.7 0.00 0.00 0.00 99 1016.4
20260506072638 58 29 2.6 8.7 0.00 0.00 0.00 99 1016.3
20260506072137 59 30 4.3 5.2 0.00 0.00 0.00 99 1016.5
20260506071634 58 22 2.6 6.1 0.00 0.00 0.00 99 1016.4
20260506071131 58 10 2.6 3.5 0.00 0.00 0.00 99 1016.3
20260506070628 58 31 5.2 7.0 0.00 0.00 0.00 99 1016.4
20260506070126 59 353 2.6 6.1 0.00 0.00 0.00 99 1016.4
20260506062103 60 25 2.6 4.3 0.00 0.00 0.00 99 1016.1
20260506061558 60 297 1.7 6.1 0.00 0.00 0.00 99 1016.4
20260506061056 60 58 5.2 7.0 0.00 0.00 0.00 99 1016.2